TimeHST,TemperatureF,Dew PointF,Humidity,Sea Level PressureIn,VisibilityMPH,Wind Direction,Wind SpeedMPH,Gust SpeedMPH,PrecipitationIn,Events,Conditions,WindDirDegrees,DateUTC
12:54 AM,75.0,68.0,79,30.00,10.0,NE,9.2,-,N/A,,Scattered Clouds,40,2013-07-02 10:54:00
1:54 AM,73.9,68.0,82,29.99,10.0,NE,6.9,-,N/A,,Scattered Clouds,50,2013-07-02 11:54:00
2:54 AM,73.0,68.0,84,29.99,10.0,NE,6.9,-,N/A,,Scattered Clouds,50,2013-07-02 12:54:00
4:54 AM,73.0,68.0,84,29.98,10.0,North,5.8,-,N/A,,Clear,10,2013-07-02 14:54:00
5:54 AM,73.9,68.0,82,29.99,10.0,NNE,6.9,-,N/A,,Partly Cloudy,20,2013-07-02 15:54:00
6:54 AM,77.0,69.1,76,30.01,10.0,North,6.9,-,N/A,,Scattered Clouds,10,2013-07-02 16:54:00
7:26 AM,77.0,69.8,78,30.01,10.0,ENE,6.9,-,N/A,,Mostly Cloudy,60,2013-07-02 17:26:00
7:34 AM,77.0,69.8,78,30.01,10.0,ENE,8.1,-,N/A,,Partly Cloudy,60,2013-07-02 17:34:00
7:54 AM,79.0,71.1,77,30.03,10.0,NE,17.3,-,N/A,,Scattered Clouds,40,2013-07-02 17:54:00
8:54 AM,82.9,70.0,65,30.03,10.0,NNE,17.3,-,N/A,,Scattered Clouds,30,2013-07-02 18:54:00
9:54 AM,82.0,71.1,69,30.03,10.0,NNE,16.1,-,N/A,,Scattered Clouds,30,2013-07-02 19:54:00
10:54 AM,84.0,72.0,67,30.01,10.0,NE,20.7,-,N/A,,Scattered Clouds,40,2013-07-02 20:54:00
11:54 AM,84.0,70.0,63,30.01,10.0,NE,19.6,-,0.00,,Scattered Clouds,50,2013-07-02 21:54:00
12:54 PM,84.9,66.9,55,29.99,10.0,NNE,15.0,-,N/A,,Scattered Clouds,30,2013-07-02 22:54:00
1:54 PM,84.9,70.0,61,29.98,10.0,NNE,19.6,-,N/A,,Scattered Clouds,30,2013-07-02 23:54:00
2:54 PM,84.0,72.0,67,29.97,10.0,NNE,18.4,-,N/A,,Scattered Clouds,30,2013-07-03 00:54:00
3:54 PM,82.0,71.1,69,29.96,10.0,NE,19.6,-,0.00,,Scattered Clouds,40,2013-07-03 01:54:00
4:54 PM,81.0,72.0,74,29.96,10.0,NE,17.3,25.3,0.00,,Scattered Clouds,50,2013-07-03 02:54:00
5:54 PM,81.0,68.0,65,29.96,10.0,NE,17.3,21.9,0.00,,Scattered Clouds,40,2013-07-03 03:54:00
6:54 PM,78.1,68.0,71,29.97,10.0,NE,10.4,-,N/A,,Scattered Clouds,50,2013-07-03 04:54:00
7:54 PM,77.0,70.0,79,29.98,10.0,NE,8.1,-,N/A,,Mostly Cloudy,40,2013-07-03 05:54:00
8:54 PM,78.1,69.1,74,29.99,10.0,NE,11.5,-,N/A,,Mostly Cloudy,40,2013-07-03 06:54:00
9:54 PM,75.9,68.0,76,30.01,10.0,NE,13.8,19.6,N/A,,Mostly Cloudy,40,2013-07-03 07:54:00
10:54 PM,73.9,68.0,82,30.01,10.0,NNE,8.1,-,0.00,,Overcast,30,2013-07-03 08:54:00
11:54 PM,75.9,68.0,76,30.01,10.0,NNE,8.1,-,N/A,,Overcast,20,2013-07-03 09:54:00